User: anonymous   Login
Location: Berg
(48.5667°N, 13.9833°E)
Time: 00:45:28
(UTC+00:00)
Language:

Lacrosse 5 rocket - Orbit

View from above orbital plane
View from above orbital plane
View from above satellite
View from above satellite

Ground track
Ground track

The orbit data is extracted from the following two-line orbital elements,

1 28647U 05016B   20188.66932814 -.00000226  00000-0  56714-5 0  9996
2 28647  56.9960 162.3187 0125509 175.7858 184.4268 15.06018028 62850
Epoch (UTC): 06 July 2020 16:03:49
Eccentricity: 0.0125509
inclination: 56.9960°
perigee height: 461 km
apogee height: 635 km
right ascension of ascending node: 162.3187°
argument of perigee: 175.7858°
revolutions per day: 15.06018028
mean anomaly at epoch: 184.4268°
orbit number at epoch: 6285

The dashed part of the orbit path shows where the satellite is in the earth's shadow,  

DLR